Time,TemperatureF,DewpointF,PressureIn,WindDirection,WindDirectionDegrees,WindSpeedMPH,WindSpeedGustMPH,Humidity,HourlyPrecipIn,Conditions,Clouds,dailyrainin,SoftwareType,DateUTC
2013-04-11 00:03:00,36.9,27.3,29.21,West,280,8.3,13.9,68,-99.99,,,-99.99,WSDL version 426,2013-04-11 05:03:00,
2013-04-11 00:08:00,36.9,27.0,29.21,WNW,285,7.3,13.9,67,-99.99,,,-99.99,WSDL version 426,2013-04-11 05:08:00,
2013-04-11 00:13:00,36.9,26.9,29.21,WNW,290,9.5,13.9,67,-99.99,,,-99.99,WSDL version 426,2013-04-11 05:13:00,
2013-04-11 00:18:00,36.9,26.6,29.21,WNW,303,10.5,15.2,65,-99.99,,,-99.99,WSDL version 426,2013-04-11 05:18:00,
2013-04-11 00:23:00,36.9,26.5,29.21,NW,309,10.2,15.2,65,-99.99,,,-99.99,WSDL version 426,2013-04-11 05:23:00,
2013-04-11 00:28:00,36.9,26.3,29.21,NW,308,8.9,13.2,66,-99.99,,,-99.99,WSDL version 426,2013-04-11 05:28:00,
2013-04-11 00:33:00,36.9,26.2,29.21,NW,309,9.7,17.2,65,-99.99,,,-99.99,WSDL version 426,2013-04-11 05:33:00,
2013-04-11 00:38:00,36.7,26.0,29.21,WNW,298,8.6,17.2,65,-99.99,,,-99.99,WSDL version 426,2013-04-11 05:38:00,
2013-04-11 00:43:00,36.7,25.9,29.18,NW,307,10.7,13.2,65,-99.99,,,-99.99,WSDL version 426,2013-04-11 05:43:00,
2013-04-11 00:48:00,36.7,26.0,29.18,NW,315,8.6,13.4,65,-99.99,,,-99.99,WSDL version 426,2013-04-11 05:48:00,
2013-04-11 00:53:00,36.7,25.9,29.18,NW,320,10.1,13.4,64,-99.99,,,-99.99,WSDL version 426,2013-04-11 05:53:00,
2013-04-11 00:58:00,36.7,25.8,29.18,WNW,290,9.1,13.2,64,-99.99,,,-99.99,WSDL version 426,2013-04-11 05:58:00,
2013-04-11 01:03:00,36.7,25.7,29.18,NW,308,9.2,12.3,64,-99.99,,,-99.99,WSDL version 426,2013-04-11 06:03:00,
2013-04-11 01:08:00,36.7,25.9,29.18,WNW,295,6.9,12.3,65,-99.99,,,-99.99,WSDL version 426,2013-04-11 06:08:00,
2013-04-11 01:13:00,36.5,25.9,29.18,WNW,298,6.5,10.7,65,-99.99,,,-99.99,WSDL version 426,2013-04-11 06:13:00,
2013-04-11 01:18:00,36.5,25.9,29.18,WNW,300,7.6,10.1,65,-99.99,,,-99.99,WSDL version 426,2013-04-11 06:18:00,
2013-04-11 01:23:00,36.5,26.1,29.18,WNW,303,5.8,10.1,66,-99.99,,,-99.99,WSDL version 426,2013-04-11 06:23:00,
2013-04-11 01:28:00,36.5,25.9,29.18,WNW,290,6.0,9.6,65,-99.99,,,-99.99,WSDL version 426,2013-04-11 06:28:00,
2013-04-11 01:33:00,36.6,26.0,29.18,NW,307,7.7,12.8,65,-99.99,,,-99.99,WSDL version 426,2013-04-11 06:33:00,
2013-04-11 01:38:00,36.7,25.8,29.18,NW,313,8.6,12.8,64,-99.99,,,-99.99,WSDL version 426,2013-04-11 06:38:00,
2013-04-11 01:43:00,36.6,26.0,29.18,WNW,301,6.8,10.5,65,-99.99,,,-99.99,WSDL version 426,2013-04-11 06:43:00,
2013-04-11 01:48:00,36.5,25.9,29.18,WNW,295,6.1,13.0,66,-99.99,,,-99.99,WSDL version 426,2013-04-11 06:48:00,
2013-04-11 01:53:00,36.5,26.2,29.18,NW,305,5.2,13.0,66,-99.99,,,-99.99,WSDL version 426,2013-04-11 06:53:00,
2013-04-11 01:58:00,36.5,26.4,29.18,WNW,295,4.1,8.9,67,-99.99,,,-99.99,WSDL version 426,2013-04-11 06:58:00,
2013-04-11 02:03:00,36.5,26.6,29.18,NW,308,4.5,6.5,67,-99.99,,,-99.99,WSDL version 426,2013-04-11 07:03:00,
2013-04-11 02:08:00,36.5,26.6,29.18,NW,315,5.4,7.6,67,-99.99,,,-99.99,WSDL version 426,2013-04-11 07:08:00,
2013-04-11 02:13:00,36.5,26.6,29.15,WNW,303,6.2,10.3,66,-99.99,,,-99.99,WSDL version 426,2013-04-11 07:13:00,
2013-04-11 02:18:00,36.3,24.6,29.15,NW,304,10.6,17.0,61,-99.99,,,-99.99,WSDL version 426,2013-04-11 07:18:00,
2013-04-11 02:23:00,36.3,23.9,29.15,WNW,288,9.6,17.0,60,-99.99,,,-99.99,WSDL version 426,2013-04-11 07:23:00,
2013-04-11 02:28:00,36.1,22.9,29.18,NW,305,12.5,17.0,57,-99.99,,,-99.99,WSDL version 426,2013-04-11 07:28:00,
2013-04-11 02:33:00,36.0,22.5,29.18,NW,315,10.5,17.0,58,-99.99,,,-99.99,WSDL version 426,2013-04-11 07:33:00,
2013-04-11 02:38:00,35.8,22.6,29.18,NW,325,8.6,15.2,58,-99.99,,,-99.99,WSDL version 426,2013-04-11 07:38:00,
2013-04-11 02:43:00,35.8,22.5,29.15,NW,315,8.8,12.8,58,-99.99,,,-99.99,WSDL version 426,2013-04-11 07:43:00,
2013-04-11 02:48:00,35.8,22.5,29.15,NW,320,7.4,12.8,58,-99.99,,,-99.99,WSDL version 426,2013-04-11 07:48:00,
2013-04-11 02:53:00,35.8,22.5,29.15,NNW,332,7.2,12.5,59,-99.99,,,-99.99,WSDL version 426,2013-04-11 07:53:00,
2013-04-11 02:58:00,35.8,22.5,29.15,NW,312,11.4,14.8,58,-99.99,,,-99.99,WSDL version 426,2013-04-11 07:58:00,
2013-04-11 03:03:00,35.8,22.5,29.15,NW,315,10.3,14.8,58,-99.99,,,-99.99,WSDL version 426,2013-04-11 08:03:00,
2013-04-11 03:11:00,35.8,22.9,-100.00,NW,321,8.3,8.3,59,-99.99,,,-99.99,WSDL version 426,2013-04-11 08:11:00,
2013-04-11 03:16:00,35.8,22.9,29.15,NW,309,4.1,7.6,59,-99.99,,,-99.99,WSDL version 426,2013-04-11 08:16:00,
2013-04-11 03:21:00,35.8,22.5,29.15,NW,310,6.9,8.9,58,-99.99,,,-99.99,WSDL version 426,2013-04-11 08:21:00,
2013-04-11 03:26:00,35.8,22.1,29.18,NW,326,8.8,13.6,57,-99.99,,,-99.99,WSDL version 426,2013-04-11 08:26:00,
2013-04-11 03:31:00,35.8,22.5,29.18,NW,308,6.2,13.6,58,-99.99,,,-99.99,WSDL version 426,2013-04-11 08:31:00,
2013-04-11 03:36:00,35.9,22.7,29.18,NW,320,4.2,7.8,59,-99.99,,,-99.99,WSDL version 426,2013-04-11 08:36:00,
2013-04-11 03:41:00,35.8,22.9,29.18,WNW,301,4.3,6.5,59,-99.99,,,-99.99,WSDL version 426,2013-04-11 08:41:00,
2013-04-11 03:46:00,35.8,22.6,29.18,NW,310,6.0,9.4,58,-99.99,,,-99.99,WSDL version 426,2013-04-11 08:46:00,
2013-04-11 03:52:00,35.8,22.5,29.18,WNW,300,6.4,9.4,58,-99.99,,,-99.99,WSDL version 426,2013-04-11 08:52:00,
2013-04-11 03:57:00,35.8,22.5,29.18,NW,308,6.7,8.5,58,-99.99,,,-99.99,WSDL version 426,2013-04-11 08:57:00,
2013-04-11 04:02:00,35.8,22.5,29.18,NW,312,7.6,10.7,58,-99.99,,,-99.99,WSDL version 426,2013-04-11 09:02:00,
2013-04-11 04:07:00,35.8,22.5,29.18,WNW,298,7.8,11.0,58,-99.99,,,-99.99,WSDL version 426,2013-04-11 09:07:00,
2013-04-11 04:12:00,35.8,22.5,29.18,WNW,284,7.3,11.0,58,-99.99,,,-99.99,WSDL version 426,2013-04-11 09:12:00,
2013-04-11 04:17:00,35.8,22.6,29.18,WNW,300,6.4,11.0,59,-99.99,,,-99.99,WSDL version 426,2013-04-11 09:17:00,
2013-04-11 04:22:00,35.7,22.8,29.18,WNW,290,6.4,11.2,59,-99.99,,,-99.99,WSDL version 426,2013-04-11 09:22:00,
2013-04-11 04:27:00,35.6,22.7,29.18,WNW,293,6.4,11.2,59,-99.99,,,-99.99,WSDL version 426,2013-04-11 09:27:00,
2013-04-11 04:32:00,35.5,22.4,29.18,WNW,290,5.8,11.4,59,-99.99,,,-99.99,WSDL version 426,2013-04-11 09:32:00,
2013-04-11 04:37:00,35.4,22.5,29.18,West,278,7.1,11.4,59,-99.99,,,-99.99,WSDL version 426,2013-04-11 09:37:00,
2013-04-11 04:42:00,35.2,22.4,29.15,WNW,303,6.5,10.1,60,-99.99,,,-99.99,WSDL version 426,2013-04-11 09:42:00,
2013-04-11 04:47:00,35.1,22.6,29.15,NW,304,6.7,8.7,60,-99.99,,,-99.99,WSDL version 426,2013-04-11 09:47:00,
2013-04-11 04:52:00,35.1,22.6,29.15,WNW,290,6.5,10.1,60,-99.99,,,-99.99,WSDL version 426,2013-04-11 09:52:00,
2013-04-11 04:57:00,34.9,22.4,29.15,WNW,290,4.5,10.1,60,-99.99,,,-99.99,WSDL version 426,2013-04-11 09:57:00,
2013-04-11 05:03:00,34.9,22.4,29.15,WNW,295,5.2,7.8,60,-99.99,,,-99.99,WSDL version 426,2013-04-11 10:03:00,
2013-04-11 05:08:00,34.8,22.5,29.15,WNW,290,5.1,8.5,61,-99.99,,,-99.99,WSDL version 426,2013-04-11 10:08:00,
2013-04-11 05:14:00,34.7,22.6,29.15,WNW,295,6.3,8.5,61,-99.99,,,-99.99,WSDL version 426,2013-04-11 10:14:00,
2013-04-11 05:19:00,34.7,22.6,29.15,West,278,6.6,8.1,61,-99.99,,,-99.99,WSDL version 426,2013-04-11 10:19:00,
2013-04-11 05:24:00,34.6,22.5,29.15,WNW,298,7.1,10.3,61,-99.99,,,-99.99,WSDL version 426,2013-04-11 10:24:00,
2013-04-11 05:29:00,34.4,22.4,29.18,WNW,287,7.2,10.3,61,-99.99,,,-99.99,WSDL version 426,2013-04-11 10:29:00,
2013-04-11 05:34:00,34.3,22.4,29.18,West,268,6.0,10.1,62,-99.99,,,-99.99,WSDL version 426,2013-04-11 10:34:00,
2013-04-11 05:39:00,34.3,22.7,29.18,West,264,4.3,8.5,62,-99.99,,,-99.99,WSDL version 426,2013-04-11 10:39:00,
2013-04-11 05:44:00,34.2,22.6,29.18,West,280,4.9,7.4,63,-99.99,,,-99.99,WSDL version 426,2013-04-11 10:44:00,
2013-04-11 05:49:00,34.2,22.9,29.18,West,275,5.9,7.6,63,-99.99,,,-99.99,WSDL version 426,2013-04-11 10:49:00,
2013-04-11 05:54:00,34.2,22.9,29.18,West,264,4.5,7.6,63,-99.99,,,-99.99,WSDL version 426,2013-04-11 10:54:00,
2013-04-11 05:59:00,34.2,23.0,29.18,West,260,5.2,6.5,64,-99.99,,,-99.99,WSDL version 426,2013-04-11 10:59:00,
2013-04-11 06:04:00,34.2,23.3,29.18,West,270,4.8,6.5,64,-99.99,,,-99.99,WSDL version 426,2013-04-11 11:04:00,
2013-04-11 06:09:00,34.2,23.3,29.18,WNW,285,5.7,7.4,64,-99.99,,,-99.99,WSDL version 426,2013-04-11 11:09:00,
2013-04-11 06:14:00,34.2,23.4,29.18,WNW,295,5.0,7.4,65,-99.99,,,-99.99,WSDL version 426,2013-04-11 11:14:00,
2013-04-11 06:19:00,34.2,23.4,29.18,WNW,293,5.4,7.4,65,-99.99,,,-99.99,WSDL version 426,2013-04-11 11:19:00,
2013-04-11 06:24:00,34.2,23.6,29.18,West,262,4.4,6.9,65,-99.99,,,-99.99,WSDL version 426,2013-04-11 11:24:00,
2013-04-11 06:29:00,34.0,23.5,29.18,West,278,4.9,7.8,65,-99.99,,,-99.99,WSDL version 426,2013-04-11 11:29:00,
2013-04-11 06:34:00,33.9,23.4,29.18,West,273,3.0,7.8,65,-99.99,,,-99.99,WSDL version 426,2013-04-11 11:34:00,
2013-04-11 06:39:00,33.8,23.3,29.18,WNW,295,3.6,6.3,65,-99.99,,,-99.99,WSDL version 426,2013-04-11 11:39:00,
2013-04-11 06:44:00,33.8,23.6,29.18,WNW,285,3.8,6.0,66,-99.99,,,-99.99,WSDL version 426,2013-04-11 11:44:00,
2013-04-11 06:49:00,33.8,23.7,29.18,WNW,296,4.3,6.3,66,-99.99,,,-99.99,WSDL version 426,2013-04-11 11:49:00,
2013-04-11 06:54:00,33.9,23.7,29.18,NW,315,5.2,8.5,66,-99.99,,,-99.99,WSDL version 426,2013-04-11 11:54:00,
2013-04-11 06:59:00,34.0,23.8,29.18,NNW,333,4.5,8.5,66,-99.99,,,-99.99,WSDL version 426,2013-04-11 11:59:00,
2013-04-11 07:04:00,34.0,23.8,29.18,NNW,329,4.9,7.8,66,-99.99,,,-99.99,WSDL version 426,2013-04-11 12:04:00,
2013-04-11 07:09:00,34.0,23.9,29.18,NW,315,6.0,9.8,66,-99.99,,,-99.99,WSDL version 426,2013-04-11 12:09:00,
2013-04-11 07:14:00,34.2,23.9,29.15,NW,318,6.2,9.8,65,-99.99,,,-99.99,WSDL version 426,2013-04-11 12:14:00,
2013-04-11 07:19:00,34.2,23.1,29.15,NNW,330,8.0,10.7,63,-99.99,,,-99.99,WSDL version 426,2013-04-11 12:19:00,
2013-04-11 07:25:00,34.3,22.5,29.15,NW,315,7.3,12.8,62,-99.99,,,-99.99,WSDL version 426,2013-04-11 12:25:00,
2013-04-11 07:30:00,34.3,22.3,29.15,NW,318,6.9,12.8,61,-99.99,,,-99.99,WSDL version 426,2013-04-11 12:30:00,
2013-04-11 07:35:00,34.3,22.3,29.15,NW,325,6.8,10.7,61,-99.99,,,-99.99,WSDL version 426,2013-04-11 12:35:00,
2013-04-11 07:40:00,34.3,22.3,29.15,WNW,295,6.1,8.7,61,-99.99,,,-99.99,WSDL version 426,2013-04-11 12:40:00,
2013-04-11 07:45:00,34.3,22.6,29.18,West,270,4.5,8.1,62,-99.99,,,-99.99,WSDL version 426,2013-04-11 12:45:00,
2013-04-11 07:50:00,34.3,22.9,29.18,WNW,293,4.8,8.1,63,-99.99,,,-99.99,WSDL version 426,2013-04-11 12:50:00,
2013-04-11 07:55:00,34.2,23.3,29.18,West,278,5.0,6.5,64,-99.99,,,-99.99,WSDL version 426,2013-04-11 12:55:00,
2013-04-11 08:00:00,34.2,23.6,29.15,WNW,293,4.3,6.5,65,-99.99,,,-99.99,WSDL version 426,2013-04-11 13:00:00,
2013-04-11 08:05:00,34.2,23.9,29.15,West,280,5.4,7.2,66,-99.99,,,-99.99,WSDL version 426,2013-04-11 13:05:00,
2013-04-11 08:10:00,34.3,24.2,29.18,West,270,4.6,7.2,66,-99.99,,,-99.99,WSDL version 426,2013-04-11 13:10:00,
2013-04-11 08:15:00,34.5,24.3,29.18,West,273,6.0,7.6,66,-99.99,,,-99.99,WSDL version 426,2013-04-11 13:15:00,
2013-04-11 08:20:00,34.5,24.3,29.18,West,281,4.8,7.6,66,-99.99,,,-99.99,WSDL version 426,2013-04-11 13:20:00,
2013-04-11 08:25:00,34.6,24.4,29.18,WNW,290,4.4,7.6,66,-99.99,,,-99.99,WSDL version 426,2013-04-11 13:25:00,
2013-04-11 08:30:00,34.9,24.6,29.18,WNW,293,6.0,7.6,65,-99.99,,,-99.99,WSDL version 426,2013-04-11 13:30:00,
2013-04-11 08:35:00,34.9,24.3,29.18,WNW,298,6.0,8.5,65,-99.99,,,-99.99,WSDL version 426,2013-04-11 13:35:00,
2013-04-11 08:40:00,35.1,24.4,29.18,WNW,295,6.9,9.8,64,-99.99,,,-99.99,WSDL version 426,2013-04-11 13:40:00,
2013-04-11 08:45:00,35.5,24.4,29.18,WNW,298,6.5,9.8,63,-99.99,,,-99.99,WSDL version 426,2013-04-11 13:45:00,
2013-04-11 08:50:00,35.7,24.3,29.18,West,278,5.3,8.7,63,-99.99,,,-99.99,WSDL version 426,2013-04-11 13:50:00,
2013-04-11 08:55:00,36.0,24.4,29.18,WNW,293,5.7,8.7,62,-99.99,,,-99.99,WSDL version 426,2013-04-11 13:55:00,
2013-04-11 09:00:00,36.2,24.5,29.18,WNW,290,6.1,7.8,62,-99.99,,,-99.99,WSDL version 426,2013-04-11 14:00:00,
2013-04-11 09:05:00,36.5,24.2,29.18,NW,308,6.6,9.6,59,-99.99,,,-99.99,WSDL version 426,2013-04-11 14:05:00,
2013-04-11 09:11:00,36.6,23.2,29.18,NW,310,6.8,9.6,57,-99.99,,,-99.99,WSDL version 426,2013-04-11 14:11:00,
2013-04-11 09:16:00,36.8,23.1,29.18,NW,312,8.8,12.3,57,-99.99,,,-99.99,WSDL version 426,2013-04-11 14:16:00,
2013-04-11 09:21:00,37.1,22.8,29.18,NW,312,9.5,12.8,55,-99.99,,,-99.99,WSDL version 426,2013-04-11 14:21:00,
2013-04-11 09:27:00,37.5,22.7,29.18,WNW,298,7.5,12.8,54,-99.99,,,-99.99,WSDL version 426,2013-04-11 14:27:00,
2013-04-11 09:32:00,37.7,22.8,29.18,NW,309,8.2,12.8,54,-99.99,,,-99.99,WSDL version 426,2013-04-11 14:32:00,
2013-04-11 09:37:00,37.9,22.4,29.18,NW,315,8.7,13.2,53,-99.99,,,-99.99,WSDL version 426,2013-04-11 14:37:00,
2013-04-11 09:43:00,38.3,22.3,29.18,NNW,328,9.2,13.2,53,-99.99,,,-99.99,WSDL version 426,2013-04-11 14:43:00,
2013-04-11 09:48:00,38.7,22.9,29.18,NW,315,6.9,12.8,53,-99.99,,,-99.99,WSDL version 426,2013-04-11 14:48:00,
2013-04-11 09:53:00,39.0,23.3,29.18,WNW,290,9.3,13.0,53,-99.99,,,-99.99,WSDL version 426,2013-04-11 14:53:00,
2013-04-11 09:58:00,38.6,22.2,29.18,West,268,7.3,13.0,51,-99.99,,,-99.99,WSDL version 426,2013-04-11 14:58:00,
2013-04-11 10:03:00,38.6,21.8,29.18,NW,315,10.0,14.1,49,-99.99,,,-99.99,WSDL version 426,2013-04-11 15:03:00,
2013-04-11 10:08:00,39.0,21.9,29.18,NW,323,8.1,14.1,50,-99.99,,,-99.99,WSDL version 426,2013-04-11 15:08:00,
2013-04-11 10:13:00,39.7,22.6,29.18,WNW,290,9.7,12.3,49,-99.99,,,-99.99,WSDL version 426,2013-04-11 15:13:00,
2013-04-11 10:18:00,40.0,22.4,29.18,WNW,288,6.9,12.3,49,-99.99,,,-99.99,WSDL version 426,2013-04-11 15:18:00,
2013-04-11 10:23:00,40.6,23.2,29.18,NW,309,7.4,11.4,50,-99.99,,,-99.99,WSDL version 426,2013-04-11 15:23:00,
2013-04-11 10:28:00,41.0,23.2,29.18,West,275,7.6,11.4,47,-99.99,,,-99.99,WSDL version 426,2013-04-11 15:28:00,
2013-04-11 10:33:00,41.2,22.0,29.18,NNW,332,8.9,12.8,46,-99.99,,,-99.99,WSDL version 426,2013-04-11 15:33:00,
2013-04-11 10:38:00,41.5,21.9,29.18,West,278,9.5,14.3,44,-99.99,,,-99.99,WSDL version 426,2013-04-11 15:38:00,
2013-04-11 10:43:00,41.7,21.2,29.18,NW,308,6.3,14.3,43,-99.99,,,-99.99,WSDL version 426,2013-04-11 15:43:00,
2013-04-11 10:48:00,42.1,21.6,29.18,WNW,295,6.8,12.3,44,-99.99,,,-99.99,WSDL version 426,2013-04-11 15:48:00,
2013-04-11 10:53:00,42.4,22.0,29.18,WNW,300,8.0,12.3,44,-99.99,,,-99.99,WSDL version 426,2013-04-11 15:53:00,
2013-04-11 10:58:00,42.6,21.5,29.15,WNW,290,5.1,10.7,42,-99.99,,,-99.99,WSDL version 426,2013-04-11 15:58:00,
2013-04-11 11:03:00,42.9,21.4,29.15,WNW,300,7.5,11.4,42,-99.99,,,-99.99,WSDL version 426,2013-04-11 16:03:00,
2013-04-11 11:08:00,43.1,21.6,29.15,WNW,301,7.6,12.3,42,-99.99,,,-99.99,WSDL version 426,2013-04-11 16:08:00,
2013-04-11 11:13:00,43.4,21.4,29.15,WNW,298,10.3,17.2,41,-99.99,,,-99.99,WSDL version 426,2013-04-11 16:13:00,
2013-04-11 11:19:00,43.6,21.1,29.15,NW,323,10.8,17.2,40,-99.99,,,-99.99,WSDL version 426,2013-04-11 16:19:00,
2013-04-11 11:24:00,43.7,21.2,29.15,NW,318,9.5,14.8,41,-99.99,,,-99.99,WSDL version 426,2013-04-11 16:24:00,
2013-04-11 11:29:00,44.4,22.1,29.15,WNW,288,8.2,14.8,40,-99.99,,,-99.99,WSDL version 426,2013-04-11 16:29:00,
2013-04-11 11:34:00,44.7,21.9,29.15,West,281,8.3,14.8,40,-99.99,,,-99.99,WSDL version 426,2013-04-11 16:34:00,
2013-04-11 11:39:00,45.2,22.2,29.15,WNW,298,7.2,13.0,40,-99.99,,,-99.99,WSDL version 426,2013-04-11 16:39:00,
2013-04-11 11:44:00,45.8,22.7,29.15,WNW,296,7.9,10.5,40,-99.99,,,-99.99,WSDL version 426,2013-04-11 16:44:00,
2013-04-11 11:49:00,46.3,22.7,29.15,WNW,290,4.8,10.5,39,-99.99,,,-99.99,WSDL version 426,2013-04-11 16:49:00,
2013-04-11 11:54:00,46.7,23.1,29.15,NNW,329,5.8,11.0,39,-99.99,,,-99.99,WSDL version 426,2013-04-11 16:54:00,
2013-04-11 11:59:00,47.1,23.4,29.15,WSW,255,8.0,12.1,38,-99.99,,,-99.99,WSDL version 426,2013-04-11 16:59:00,
2013-04-11 12:04:00,47.2,22.9,29.15,WNW,295,8.7,13.2,38,-99.99,,,-99.99,WSDL version 426,2013-04-11 17:04:00,
2013-04-11 12:09:00,47.4,23.1,29.15,WNW,298,10.2,15.2,38,-99.99,,,-99.99,WSDL version 426,2013-04-11 17:09:00,
2013-04-11 12:14:00,47.5,23.1,29.15,NNW,328,8.6,15.2,38,-99.99,,,-99.99,WSDL version 426,2013-04-11 17:14:00,
2013-04-11 12:19:00,47.9,23.3,29.15,NW,323,9.3,13.0,37,-99.99,,,-99.99,WSDL version 426,2013-04-11 17:19:00,
2013-04-11 12:24:00,48.2,23.0,29.15,NW,308,10.5,13.2,36,-99.99,,,-99.99,WSDL version 426,2013-04-11 17:24:00,
2013-04-11 12:29:00,48.5,23.2,29.15,NW,312,6.6,13.2,37,-99.99,,,-99.99,WSDL version 426,2013-04-11 17:29:00,
2013-04-11 12:35:00,49.4,23.7,29.15,WNW,283,7.3,12.3,35,-99.99,,,-99.99,WSDL version 426,2013-04-11 17:35:00,
2013-04-11 12:40:00,49.8,22.7,29.15,SW,231,6.9,12.3,34,-99.99,,,-99.99,WSDL version 426,2013-04-11 17:40:00,
2013-04-11 12:45:00,50.1,22.8,29.15,West,273,8.2,13.9,34,-99.99,,,-99.99,WSDL version 426,2013-04-11 17:45:00,
2013-04-11 12:51:00,50.5,22.3,29.15,West,267,6.1,13.9,33,-99.99,,,-99.99,WSDL version 426,2013-04-11 17:51:00,
2013-04-11 12:57:00,50.7,22.9,29.15,WNW,298,9.6,12.8,33,-99.99,,,-99.99,WSDL version 426,2013-04-11 17:57:00,
2013-04-11 13:03:00,51.0,22.7,29.15,WNW,300,7.1,12.8,33,-99.99,,,-99.99,WSDL version 426,2013-04-11 18:03:00,
2013-04-11 13:08:00,51.8,23.6,29.15,SW,214,4.1,9.8,32,-99.99,,,-99.99,WSDL version 426,2013-04-11 18:08:00,
2013-04-11 13:13:00,51.7,23.1,29.12,WSW,258,8.1,15.4,32,-99.99,,,-99.99,WSDL version 426,2013-04-11 18:13:00,
2013-04-11 13:18:00,52.0,23.1,29.12,NW,304,7.5,15.4,32,-99.99,,,-99.99,WSDL version 426,2013-04-11 18:18:00,
2013-04-11 13:23:00,52.4,23.0,29.12,WSW,245,7.0,13.2,31,-99.99,,,-99.99,WSDL version 426,2013-04-11 18:23:00,
2013-04-11 13:28:00,52.3,22.3,29.12,West,267,11.8,18.6,30,-99.99,,,-99.99,WSDL version 426,2013-04-11 18:28:00,
2013-04-11 13:33:00,52.2,22.2,29.12,West,276,8.2,18.6,31,-99.99,,,-99.99,WSDL version 426,2013-04-11 18:33:00,
2013-04-11 13:38:00,52.4,22.7,29.12,West,260,6.9,13.0,31,-99.99,,,-99.99,WSDL version 426,2013-04-11 18:38:00,
2013-04-11 13:43:00,53.1,23.8,29.12,West,276,10.1,19.9,31,-99.99,,,-99.99,WSDL version 426,2013-04-11 18:43:00,
2013-04-11 13:48:00,53.5,23.0,29.12,West,263,5.0,19.9,30,-99.99,,,-99.99,WSDL version 426,2013-04-11 18:48:00,
2013-04-11 13:53:00,53.9,23.3,29.12,West,276,9.1,12.5,30,-99.99,,,-99.99,WSDL version 426,2013-04-11 18:53:00,
2013-04-11 13:58:00,53.8,23.0,29.12,NW,323,7.4,12.5,30,-99.99,,,-99.99,WSDL version 426,2013-04-11 18:58:00,
2013-04-11 14:03:00,53.7,22.7,29.12,WNW,295,8.1,13.2,30,-99.99,,,-99.99,WSDL version 426,2013-04-11 19:03:00,
2013-04-11 14:09:00,54.2,23.1,29.12,NW,318,8.5,12.8,29,-99.99,,,-99.99,WSDL version 426,2013-04-11 19:09:00,
2013-04-11 14:14:00,54.5,23.3,29.12,NW,323,7.8,12.8,30,-99.99,,,-99.99,WSDL version 426,2013-04-11 19:14:00,
2013-04-11 14:19:00,55.5,24.6,29.12,West,268,6.2,10.5,29,-99.99,,,-99.99,WSDL version 426,2013-04-11 19:19:00,
2013-04-11 14:24:00,55.1,23.6,29.12,West,263,10.7,14.8,29,-99.99,,,-99.99,WSDL version 426,2013-04-11 19:24:00,
2013-04-11 14:29:00,55.0,23.0,29.09,WNW,287,7.3,14.8,28,-99.99,,,-99.99,WSDL version 426,2013-04-11 19:29:00,
2013-04-11 14:34:00,54.8,22.7,29.09,NW,309,8.5,12.5,29,-99.99,,,-99.99,WSDL version 426,2013-04-11 19:34:00,
2013-04-11 14:39:00,55.2,22.9,29.09,WNW,290,9.7,13.4,28,-99.99,,,-99.99,WSDL version 426,2013-04-11 19:39:00,
2013-04-11 14:44:00,55.8,23.1,29.09,West,263,4.3,13.4,27,-99.99,,,-99.99,WSDL version 426,2013-04-11 19:44:00,
2013-04-11 14:49:00,56.3,23.9,29.09,WNW,284,4.1,7.8,28,-99.99,,,-99.99,WSDL version 426,2013-04-11 19:49:00,
2013-04-11 14:54:00,56.8,24.2,29.09,WNW,285,7.5,10.3,28,-99.99,,,-99.99,WSDL version 426,2013-04-11 19:54:00,
2013-04-11 14:59:00,56.8,24.0,29.09,WSW,250,4.3,10.3,28,-99.99,,,-99.99,WSDL version 426,2013-04-11 19:59:00,
2013-04-11 15:04:00,56.8,23.7,29.09,SSW,205,5.9,9.6,27,-99.99,,,-99.99,WSDL version 426,2013-04-11 20:04:00,
2013-04-11 15:09:00,56.6,23.8,29.09,SW,233,6.2,10.5,28,-99.99,,,-99.99,WSDL version 426,2013-04-11 20:09:00,
2013-04-11 15:14:00,57.0,23.5,29.09,WSW,253,5.8,10.5,27,-99.99,,,-99.99,WSDL version 426,2013-04-11 20:14:00,
2013-04-11 15:19:00,57.5,24.1,29.09,SW,235,8.7,12.5,27,-99.99,,,-99.99,WSDL version 426,2013-04-11 20:19:00,
2013-04-11 15:24:00,57.5,23.6,29.09,WSW,253,6.8,12.5,26,-99.99,,,-99.99,WSDL version 426,2013-04-11 20:24:00,
2013-04-11 15:29:00,58.0,23.6,29.09,West,268,5.3,10.3,27,-99.99,,,-99.99,WSDL version 426,2013-04-11 20:29:00,
2013-04-11 15:34:00,57.8,23.5,29.09,WNW,284,8.9,13.0,27,-99.99,,,-99.99,WSDL version 426,2013-04-11 20:34:00,
2013-04-11 15:39:00,58.0,23.5,29.09,WSW,239,7.2,13.0,26,-99.99,,,-99.99,WSDL version 426,2013-04-11 20:39:00,
2013-04-11 15:44:00,58.3,23.5,29.06,WNW,290,6.5,11.2,26,-99.99,,,-99.99,WSDL version 426,2013-04-11 20:44:00,
2013-04-11 15:49:00,58.3,23.6,29.06,West,276,8.2,14.3,26,-99.99,,,-99.99,WSDL version 426,2013-04-11 20:49:00,
2013-04-11 15:54:00,58.6,23.8,29.06,West,270,8.1,14.3,26,-99.99,,,-99.99,WSDL version 426,2013-04-11 20:54:00,
2013-04-11 15:59:00,59.0,24.2,29.06,South,180,5.5,13.0,26,-99.99,,,-99.99,WSDL version 426,2013-04-11 20:59:00,
2013-04-11 16:05:00,59.3,23.5,29.06,WNW,285,9.0,14.5,25,-99.99,,,-99.99,WSDL version 426,2013-04-11 21:05:00,
2013-04-11 16:10:00,59.5,23.6,29.06,NW,309,8.3,14.5,25,-99.99,,,-99.99,WSDL version 426,2013-04-11 21:10:00,
2013-04-11 16:15:00,60.0,24.1,29.06,WNW,290,6.8,12.8,25,-99.99,,,-99.99,WSDL version 426,2013-04-11 21:15:00,
2013-04-11 16:20:00,60.8,24.8,29.06,West,267,6.2,12.8,25,-99.99,,,-99.99,WSDL version 426,2013-04-11 21:20:00,
2013-04-11 16:26:00,61.1,25.0,29.06,West,263,10.0,15.2,25,-99.99,,,-99.99,WSDL version 426,2013-04-11 21:26:00,
2013-04-11 16:31:00,60.7,24.7,29.06,SW,231,6.1,15.2,25,-99.99,,,-99.99,WSDL version 426,2013-04-11 21:31:00,
2013-04-11 16:36:00,61.9,25.6,29.06,WSW,238,3.7,10.5,25,-99.99,,,-99.99,WSDL version 426,2013-04-11 21:36:00,
2013-04-11 16:41:00,62.7,25.4,29.06,WNW,284,8.6,12.5,24,-99.99,,,-99.99,WSDL version 426,2013-04-11 21:41:00,
2013-04-11 16:47:00,62.1,25.0,29.06,NW,310,7.9,13.2,25,-99.99,,,-99.99,WSDL version 426,2013-04-11 21:47:00,
2013-04-11 16:53:00,62.9,25.7,29.06,West,270,5.8,11.0,24,-99.99,,,-99.99,WSDL version 426,2013-04-11 21:53:00,
2013-04-11 16:58:00,63.1,25.8,29.06,West,263,10.2,13.9,24,-99.99,,,-99.99,WSDL version 426,2013-04-11 21:58:00,
2013-04-11 17:04:00,62.5,25.3,29.06,WNW,298,9.1,15.2,24,-99.99,,,-99.99,WSDL version 426,2013-04-11 22:04:00,
2013-04-11 17:09:00,62.7,25.4,29.06,West,264,7.9,15.2,24,-99.99,,,-99.99,WSDL version 426,2013-04-11 22:09:00,
2013-04-11 17:14:00,62.1,24.9,29.06,West,263,12.6,15.4,24,-99.99,,,-99.99,WSDL version 426,2013-04-11 22:14:00,
2013-04-11 17:19:00,62.0,24.8,29.06,West,260,9.2,15.4,24,-99.99,,,-99.99,WSDL version 426,2013-04-11 22:19:00,
2013-04-11 17:24:00,61.8,24.6,29.06,WSW,242,8.6,12.8,24,-99.99,,,-99.99,WSDL version 426,2013-04-11 22:24:00,
2013-04-11 17:29:00,61.9,24.7,29.06,WSW,238,10.6,13.2,24,-99.99,,,-99.99,WSDL version 426,2013-04-11 22:29:00,
2013-04-11 17:34:00,61.7,24.6,29.06,West,273,9.6,13.4,24,-99.99,,,-99.99,WSDL version 426,2013-04-11 22:34:00,
2013-04-11 17:39:00,62.1,24.9,29.06,WNW,283,8.4,13.4,24,-99.99,,,-99.99,WSDL version 426,2013-04-11 22:39:00,
2013-04-11 17:44:00,62.5,25.3,29.06,West,262,7.2,13.4,24,-99.99,,,-99.99,WSDL version 426,2013-04-11 22:44:00,
2013-04-11 17:49:00,62.6,25.4,29.06,SW,228,8.2,13.2,24,-99.99,,,-99.99,WSDL version 426,2013-04-11 22:49:00,
2013-04-11 17:54:00,62.0,24.8,29.06,West,259,7.5,12.5,24,-99.99,,,-99.99,WSDL version 426,2013-04-11 22:54:00,
2013-04-11 17:59:00,61.7,24.6,29.06,West,280,13.4,17.0,24,-99.99,,,-99.99,WSDL version 426,2013-04-11 22:59:00,
2013-04-11 18:04:00,61.6,24.4,29.06,West,273,9.6,17.0,24,-99.99,,,-99.99,WSDL version 426,2013-04-11 23:04:00,
2013-04-11 18:09:00,61.6,24.4,29.06,WSW,239,8.8,15.4,24,-99.99,,,-99.99,WSDL version 426,2013-04-11 23:09:00,
2013-04-11 18:14:00,61.6,24.5,29.06,WSW,253,9.6,15.2,24,-99.99,,,-99.99,WSDL version 426,2013-04-11 23:14:00,
2013-04-11 18:19:00,61.7,24.6,29.06,West,264,8.3,13.2,24,-99.99,,,-99.99,WSDL version 426,2013-04-11 23:19:00,
2013-04-11 18:24:00,62.1,24.9,29.06,WNW,285,5.9,10.7,24,-99.99,,,-99.99,WSDL version 426,2013-04-11 23:24:00,
2013-04-11 18:29:00,62.2,25.0,29.06,West,280,7.5,13.2,24,-99.99,,,-99.99,WSDL version 426,2013-04-11 23:29:00,
2013-04-11 18:34:00,62.3,25.1,29.06,West,278,7.3,13.2,24,-99.99,,,-99.99,WSDL version 426,2013-04-11 23:34:00,
2013-04-11 18:39:00,62.5,25.3,29.06,WNW,283,6.5,12.8,24,-99.99,,,-99.99,WSDL version 426,2013-04-11 23:39:00,
2013-04-11 18:44:00,62.5,25.3,29.06,WSW,253,7.7,12.1,24,-99.99,,,-99.99,WSDL version 426,2013-04-11 23:44:00,
2013-04-11 18:49:00,61.9,24.7,29.06,WNW,293,7.2,12.1,24,-99.99,,,-99.99,WSDL version 426,2013-04-11 23:49:00,
2013-04-11 18:54:00,61.8,24.6,29.06,WNW,295,9.3,12.8,24,-99.99,,,-99.99,WSDL version 426,2013-04-11 23:54:00,
2013-04-11 18:59:00,61.1,24.1,29.06,WNW,298,7.8,14.5,24,-99.99,,,-99.99,WSDL version 426,2013-04-11 23:59:00,
2013-04-11 19:04:00,60.6,24.3,29.06,WNW,303,9.8,15.4,25,-99.99,,,-99.99,WSDL version 426,2013-04-12 00:04:00,
2013-04-11 19:09:00,60.4,24.4,29.06,NW,309,6.9,15.4,25,-99.99,,,-99.99,WSDL version 426,2013-04-12 00:09:00,
2013-04-11 19:14:00,60.4,24.4,29.06,WNW,290,6.9,10.5,25,-99.99,,,-99.99,WSDL version 426,2013-04-12 00:14:00,
2013-04-11 19:19:00,60.1,24.2,29.06,WNW,284,5.1,10.5,25,-99.99,,,-99.99,WSDL version 426,2013-04-12 00:19:00,
2013-04-11 19:24:00,59.7,23.8,29.06,WNW,285,6.0,10.1,25,-99.99,,,-99.99,WSDL version 426,2013-04-12 00:24:00,
2013-04-11 19:29:00,59.1,23.3,29.06,WNW,287,6.2,10.1,25,-99.99,,,-99.99,WSDL version 426,2013-04-12 00:29:00,
2013-04-11 19:34:00,58.7,23.0,29.06,West,268,5.4,8.7,25,-99.99,,,-99.99,WSDL version 426,2013-04-12 00:34:00,
2013-04-11 19:39:00,58.1,22.9,29.06,WNW,283,4.3,7.6,26,-99.99,,,-99.99,WSDL version 426,2013-04-12 00:39:00,
2013-04-11 19:44:00,57.3,22.7,29.06,WNW,293,3.4,6.7,26,-99.99,,,-99.99,WSDL version 426,2013-04-12 00:44:00,
2013-04-11 19:49:00,56.5,22.0,29.06,WNW,295,3.3,5.6,26,-99.99,,,-99.99,WSDL version 426,2013-04-12 00:49:00,
2013-04-11 19:54:00,55.7,22.0,29.06,WNW,301,2.6,5.6,27,-99.99,,,-99.99,WSDL version 426,2013-04-12 00:54:00,
2013-04-11 19:59:00,55.0,21.6,29.06,WNW,287,2.4,3.4,27,-99.99,,,-99.99,WSDL version 426,2013-04-12 00:59:00,
2013-04-11 20:04:00,54.5,21.6,29.06,NW,307,2.2,3.4,28,-99.99,,,-99.99,WSDL version 426,2013-04-12 01:04:00,
2013-04-11 20:09:00,54.0,21.6,29.06,NW,315,0.3,3.4,28,-99.99,,,-99.99,WSDL version 426,2013-04-12 01:09:00,
2013-04-11 20:14:00,53.3,22.2,29.06,NW,309,0.0,2.7,30,-99.99,,,-99.99,WSDL version 426,2013-04-12 01:14:00,
2013-04-11 20:19:00,52.4,22.8,29.06,West,270,0.0,0.0,32,-99.99,,,-99.99,WSDL version 426,2013-04-12 01:19:00,
2013-04-11 20:24:00,51.7,24.0,29.06,West,270,0.0,0.0,34,-99.99,,,-99.99,WSDL version 426,2013-04-12 01:24:00,
2013-04-11 20:29:00,51.3,24.8,29.06,WNW,293,0.0,0.0,36,-99.99,,,-99.99,WSDL version 426,2013-04-12 01:29:00,
2013-04-11 20:34:00,50.7,24.7,29.06,ESE,113,0.8,1.6,36,-99.99,,,-99.99,WSDL version 426,2013-04-12 01:34:00,
2013-04-11 20:39:00,50.1,24.5,29.06,ESE,113,0.8,1.6,37,-99.99,,,-99.99,WSDL version 426,2013-04-12 01:39:00,
2013-04-11 20:44:00,49.6,24.8,29.06,ESE,113,0.0,1.6,38,-99.99,,,-99.99,WSDL version 426,2013-04-12 01:44:00,
2013-04-11 20:49:00,49.1,25.3,29.06,ESE,113,0.0,0.0,40,-99.99,,,-99.99,WSDL version 426,2013-04-12 01:49:00,
2013-04-11 20:54:00,48.8,25.8,29.06,ESE,113,0.0,0.0,41,-99.99,,,-99.99,WSDL version 426,2013-04-12 01:54:00,
2013-04-11 20:59:00,48.5,26.2,29.06,ESE,113,0.0,0.0,42,-99.99,,,-99.99,WSDL version 426,2013-04-12 01:59:00,
2013-04-11 21:04:00,48.1,26.1,29.06,ESE,113,0.0,0.0,42,-99.99,,,-99.99,WSDL version 426,2013-04-12 02:04:00,
2013-04-11 21:10:00,47.8,26.2,29.06,ESE,113,0.0,0.0,42,-99.99,,,-99.99,WSDL version 426,2013-04-12 02:10:00,
2013-04-11 21:15:00,47.4,25.5,29.06,ESE,113,0.0,0.0,42,-99.99,,,-99.99,WSDL version 426,2013-04-12 02:15:00,
2013-04-11 21:20:00,47.1,25.3,29.06,ESE,113,0.0,0.0,42,-99.99,,,-99.99,WSDL version 426,2013-04-12 02:20:00,
2013-04-11 21:25:00,46.5,25.0,29.09,ESE,113,0.0,0.0,44,-99.99,,,-99.99,WSDL version 426,2013-04-12 02:25:00,
2013-04-11 21:30:00,46.1,25.2,29.09,ESE,113,0.0,0.0,44,-99.99,,,-99.99,WSDL version 426,2013-04-12 02:30:00,
2013-04-11 21:35:00,45.9,25.5,29.09,ESE,113,0.0,0.0,45,-99.99,,,-99.99,WSDL version 426,2013-04-12 02:35:00,
2013-04-11 21:40:00,45.5,26.0,29.09,ESE,113,0.0,0.0,46,-99.99,,,-99.99,WSDL version 426,2013-04-12 02:40:00,
2013-04-11 21:45:00,45.2,26.5,29.09,ESE,113,0.0,0.0,48,-99.99,,,-99.99,WSDL version 426,2013-04-12 02:45:00,
2013-04-11 21:50:00,44.6,26.3,29.09,ESE,113,0.0,0.0,49,-99.99,,,-99.99,WSDL version 426,2013-04-12 02:50:00,
2013-04-11 21:55:00,44.3,26.3,29.09,ESE,113,0.0,0.0,49,-99.99,,,-99.99,WSDL version 426,2013-04-12 02:55:00,
2013-04-11 22:00:00,44.1,26.3,29.09,ESE,113,0.0,0.0,49,-99.99,,,-99.99,WSDL version 426,2013-04-12 03:00:00,
2013-04-11 22:05:00,44.0,26.4,29.09,ESE,113,0.0,0.0,50,-99.99,,,-99.99,WSDL version 426,2013-04-12 03:05:00,
2013-04-11 22:10:00,43.6,26.4,29.09,ESE,113,0.0,0.0,51,-99.99,,,-99.99,WSDL version 426,2013-04-12 03:10:00,
2013-04-11 22:15:00,42.9,26.5,29.09,ESE,113,0.0,0.0,52,-99.99,,,-99.99,WSDL version 426,2013-04-12 03:15:00,
2013-04-11 22:20:00,42.5,26.6,29.09,SE,138,0.0,0.0,53,-99.99,,,-99.99,WSDL version 426,2013-04-12 03:20:00,
2013-04-11 22:25:00,42.2,26.8,29.09,SSE,158,0.0,0.0,54,-99.99,,,-99.99,WSDL version 426,2013-04-12 03:25:00,
2013-04-11 22:30:00,42.0,26.6,29.09,SSE,158,1.1,2.2,54,-99.99,,,-99.99,WSDL version 426,2013-04-12 03:30:00,
2013-04-11 22:35:00,41.8,26.4,29.09,SSE,158,0.0,2.2,54,-99.99,,,-99.99,WSDL version 426,2013-04-12 03:35:00,
2013-04-11 22:40:00,41.7,26.3,29.09,SSE,158,0.0,1.6,54,-99.99,,,-99.99,WSDL version 426,2013-04-12 03:40:00,
2013-04-11 22:45:00,41.7,26.3,29.09,SSE,158,0.2,1.3,54,-99.99,,,-99.99,WSDL version 426,2013-04-12 03:45:00,
2013-04-11 22:50:00,41.5,26.4,29.09,SSE,158,0.0,1.3,55,-99.99,,,-99.99,WSDL version 426,2013-04-12 03:50:00,
2013-04-11 22:55:00,41.4,26.4,29.09,SSE,158,0.0,1.3,55,-99.99,,,-99.99,WSDL version 426,2013-04-12 03:55:00,
2013-04-11 23:00:00,41.2,26.3,29.09,SSE,158,0.0,0.0,55,-99.99,,,-99.99,WSDL version 426,2013-04-12 04:00:00,
2013-04-11 23:02:00,41.2,26.4,29.09,SSE,158,0.0,0.0,56,-99.99,,,-99.99,WSDL version 426,2013-04-12 04:02:00,
2013-04-11 23:04:00,41.2,26.6,29.09,SSE,158,0.0,0.0,56,-99.99,,,-99.99,WSDL version 426,2013-04-12 04:04:00,
2013-04-11 23:09:00,41.2,26.7,29.09,SSE,158,0.0,0.0,56,-99.99,,,-99.99,WSDL version 426,2013-04-12 04:09:00,
2013-04-11 23:12:00,41.2,26.8,29.09,SSE,158,0.0,0.0,56,-99.99,,,-99.99,WSDL version 426,2013-04-12 04:12:00,
2013-04-11 23:18:00,41.2,26.9,29.09,SSE,158,0.0,0.0,57,-99.99,,,-99.99,WSDL version 426,2013-04-12 04:18:00,
2013-04-11 23:23:00,41.2,27.1,29.09,SSE,158,0.0,0.0,57,-99.99,,,-99.99,WSDL version 426,2013-04-12 04:23:00,
2013-04-11 23:28:00,41.2,27.1,29.09,SSE,158,0.0,0.0,57,-99.99,,,-99.99,WSDL version 426,2013-04-12 04:28:00,
2013-04-11 23:33:00,41.1,27.1,29.09,SSE,158,0.0,0.0,58,-99.99,,,-99.99,WSDL version 426,2013-04-12 04:33:00,
2013-04-11 23:39:00,41.0,26.9,29.09,SSE,158,0.0,0.0,57,-99.99,,,-99.99,WSDL version 426,2013-04-12 04:39:00,
2013-04-11 23:44:00,40.6,27.2,29.09,SSE,158,0.0,0.0,59,-99.99,,,-99.99,WSDL version 426,2013-04-12 04:44:00,
2013-04-11 23:49:00,40.4,27.0,29.09,SSE,158,0.0,0.0,58,-99.99,,,-99.99,WSDL version 426,2013-04-12 04:49:00,
2013-04-11 23:54:00,40.1,26.9,29.09,SSE,158,0.0,0.0,59,-99.99,,,-99.99,WSDL version 426,2013-04-12 04:54:00,
2013-04-11 23:59:00,39.8,26.7,29.09,SSE,158,0.0,0.0,59,-99.99,,,-99.99,WSDL version 426,2013-04-12 04:59:00,